CW1672 Weather Reports


Display with metric or nautical units.
time (UTC)temp
F
wind
direction
speed
MPH
gust
MPH
rain 1hr
in
rain 24hr
in
rain mn
in
humidity
%
barometer
mb
20180421072527 36 0 0.0 0.0 0.00 0.00 0.00 62 1028.8
20180421072026 36 0 0.0 0.0 0.00 0.00 0.00 62 1028.8
20180421071527 36 0 0.0 0.0 0.00 0.00 0.00 61 1028.8
20180421071027 36 0 0.0 0.0 0.00 0.00 0.00 62 1028.7
20180421070527 37 0 0.0 0.0 0.00 0.00 0.00 61 1028.7
20180421070028 37 0 0.0 0.0 0.00 0.00 0.00 60 1028.6
20180421065526 38 1 0.0 1.0 0.00 0.00 0.00 59 1028.4
20180421065027 38 1 0.0 1.0 0.00 0.00 0.00 58 1028.4
20180421064527 38 0 0.0 0.0 0.00 0.00 0.00 57 1028.4
20180421064027 38 1 0.0 1.0 0.00 0.00 0.00 57 1028.2
20180421063527 39 1 0.0 1.0 0.00 0.00 0.00 57 1028.2
20180421063026 39 0 0.0 0.0 0.00 0.00 0.00 55 1028.2
20180421062526 39 0 0.0 0.0 0.00 0.00 0.00 55 1028.1
20180421062027 39 0 0.0 0.0 0.00 0.00 0.00 54 1028.1
20180421061527 39 0 0.0 0.0 0.00 0.00 0.00 54 1028.1
20180421061027 40 0 0.0 0.0 0.00 0.00 0.00 53 1028.1
20180421060526 40 0 0.0 0.0 0.00 0.00 0.00 53 1028.1
20180421060027 40 0 0.0 0.0 0.00 0.00 0.00 49 1028.1
20180421055527 41 0 0.0 0.0 0.00 0.00 0.00 50 1028.0
20180421055027 41 0 0.0 0.0 0.00 0.00 0.00 48 1028.1
20180421054527 42 0 0.0 0.0 0.00 0.00 0.00 48 1028.1
20180421054026 42 0 0.0 0.0 0.00 0.00 0.00 46 1028.0
20180421053526 43 0 0.0 0.0 0.00 0.00 0.00 44 1028.0
20180421053027 43 1 0.0 2.0 0.00 0.00 0.00 43 1028.0
20180421052527 43 8 0.0 2.0 0.00 0.00 0.00 41 1028.1
20180421052027 43 4 0.0 3.0 0.00 0.00 0.00 42 1028.1
20180421051527 43 6 0.0 3.0 0.00 0.00 0.00 41 1028.1
20180421051026 42 17 0.0 2.0 0.00 0.00 0.00 43 1028.0
20180421050526 42 15 0.0 4.0 0.00 0.00 0.00 43 1028.0
20180421050027 42 16 0.0 4.0 0.00 0.00 0.00 44 1027.9
20180421045527 42 18 0.0 2.0 0.00 0.00 0.00 46 1027.7
20180421045027 42 13 0.0 2.0 0.00 0.00 0.00 45 1027.7
20180421044527 42 15 0.0 3.0 0.00 0.00 0.00 46 1027.7
20180421044026 42 15 0.0 3.0 0.00 0.00 0.00 45 1027.4
20180421043526 42 0 0.0 0.0 0.00 0.00 0.00 45 1027.4
20180421043027 42 0 0.0 0.0 0.00 0.00 0.00 44 1027.4
20180421042527 43 3 0.0 3.0 0.00 0.00 0.00 44 1027.3
20180421042027 43 3 0.0 3.0 0.00 0.00 0.00 43 1027.3
20180421041526 43 0 0.0 0.0 0.00 0.00 0.00 44 1027.3
20180421041026 43 0 0.0 0.0 0.00 0.00 0.00 44 1027.2
20180421040527 43 148 0.0 1.0 0.00 0.00 0.00 42 1027.2
20180421040028 44 138 0.0 2.0 0.00 0.00 0.00 44 1027.1
20180421035526 44 135 0.0 2.0 0.00 0.00 0.00 41 1027.1
20180421035026 44 12 0.0 1.0 0.00 0.00 0.00 40 1027.1
20180421034527 44 12 0.0 1.0 0.00 0.00 0.00 41 1027.0
20180421034027 44 0 0.0 0.0 0.00 0.00 0.00 41 1027.0
20180421033526 45 0 0.0 0.0 0.00 0.00 0.00 38 1027.0
20180421033028 45 0 0.0 0.0 0.00 0.00 0.00 40 1027.0
20180421032526 46 0 0.0 0.0 0.00 0.00 0.00 35 1027.0
20180421032026 46 11 0.0 1.0 0.00 0.00 0.00 36 1027.0
20180421031527 46 14 0.0 3.0 0.00 0.00 0.00 36 1027.0
20180421031027 46 14 0.0 3.0 0.00 0.00 0.00 34 1026.9
20180421030527 46 34 0.0 1.0 0.00 0.00 0.00 37 1026.9
20180421030026 47 124 0.0 1.0 0.00 0.00 0.00 37 1026.8
20180421025526 47 8 0.0 7.0 0.00 0.00 0.00 35 1026.8
20180421025027 47 12 0.0 7.0 0.00 0.00 0.00 35 1026.8
20180421024527 47 119 0.0 2.0 0.00 0.00 0.00 39 1026.7
20180421024026 47 344 0.0 3.0 0.00 0.00 0.00 37 1026.7
20180421023526 47 348 0.0 3.0 0.00 0.00 0.00 35 1026.7
20180421023026 47 16 0.0 2.0 0.00 0.00 0.00 37 1026.7
20180421022526 47 10 0.0 2.0 0.00 0.00 0.00 37 1026.7
20180421022027 47 358 0.0 1.0 0.00 0.00 0.00 35 1026.7
20180421021526 47 152 0.0 4.0 0.00 0.00 0.00 36 1026.6
20180421021026 48 150 0.0 4.0 0.00 0.00 0.00 36 1026.6
20180421020526 48 115 0.0 2.0 0.00 0.00 0.00 34 1026.6
20180421020026 48 119 0.0 2.0 0.00 0.00 0.00 37 1026.6
20180421015526 48 70 0.0 2.0 0.00 0.00 0.00 34 1026.4
20180421015027 48 66 0.0 2.0 0.00 0.00 0.00 34 1026.4
20180421014526 49 1 1.0 13.0 0.00 0.00 0.00 36 1026.3
20180421014026 49 359 1.0 13.0 0.00 0.00 0.00 32 1026.3
20180421013526 49 332 1.0 7.0 0.00 0.00 0.00 35 1026.3
20180421013026 48 272 1.0 6.0 0.00 0.00 0.00 36 1026.1
20180421012527 48 1 0.0 3.0 0.00 0.00 0.00 38 1026.1
20180421012026 48 1 0.0 3.0 0.00 0.00 0.00 34 1026.1
20180421011526 49 334 0.0 2.0 0.00 0.00 0.00 36 1026.1
20180421011027 49 329 0.0 2.0 0.00 0.00 0.00 33 1026.1
20180421010526 49 356 0.0 2.0 0.00 0.00 0.00 34 1026.1
20180421010026 48 8 0.0 2.0 0.00 0.00 0.00 33 1025.8
20180421005526 48 13 0.0 2.0 0.00 0.00 0.00 36 1025.8
20180421005027 49 0 0.0 0.0 0.00 0.00 0.00 36 1025.8
20180421004527 49 97 0.0 1.0 0.00 0.00 0.00 34 1025.8
20180421004026 49 44 0.0 2.0 0.00 0.00 0.00 34 1025.6
20180421003526 50 9 0.0 2.0 0.00 0.00 0.00 35 1025.6
20180421003026 50 9 0.0 6.0 0.00 0.00 0.00 33 1025.3
20180421002526 51 1 0.0 6.0 0.00 0.00 0.00 32 1025.3
20180421002027 51 1 1.0 6.0 0.00 0.00 0.00 31 1025.3
20180421001527 51 3 1.0 5.0 0.00 0.00 0.00 29 1025.1
20180421001026 52 8 0.0 5.0 0.00 0.00 0.00 29 1025.2
20180421000526 52 354 0.0 5.0 0.00 0.00 0.00 29 1025.2
20180421000026 52 353 1.0 10.0 0.00 0.00 0.00 31 1025.1
20180420235527 52 358 1.0 10.0 0.00 0.00 0.00 32 1024.8
20180420235026 52 4 1.0 8.0 0.00 0.00 0.00 31 1024.8
20180420234526 53 359 1.0 8.0 0.00 0.00 0.00 28 1024.8
20180420234026 53 345 1.0 6.0 0.00 0.00 0.00 30 1024.7
20180420233526 53 355 1.0 6.0 0.00 0.00 0.00 27 1024.7
20180420233026 53 8 1.0 8.0 0.00 0.00 0.00 28 1024.5
20180420232527 54 5 1.0 8.0 0.00 0.00 0.00 28 1024.6
20180420232026 54 3 1.0 7.0 0.00 0.00 0.00 27 1024.6
20180420231527 54 346 1.0 8.0 0.00 0.00 0.00 27 1024.5
20180420231026 54 262 1.0 8.0 0.00 0.00 0.00 28 1024.5
20180420230526 54 213 0.0 6.0 0.00 0.00 0.00 28 1024.5
20180420230026 55 35 0.0 6.0 0.00 0.00 0.00 27 1024.5
20180420225526 55 15 1.0 8.0 0.00 0.00 0.00 27 1024.3
20180420225025 55 5 1.0 11.0 0.00 0.00 0.00 27 1024.3
20180420224526 56 10 1.0 11.0 0.00 0.00 0.00 26 1024.0
20180420224027 57 7 1.0 7.0 0.00 0.00 0.00 26 1024.1
20180420223526 57 304 1.0 7.0 0.00 0.00 0.00 26 1024.1
20180420223026 58 287 1.0 5.0 0.00 0.00 0.00 25 1024.1
20180420222526 58 318 1.0 5.0 0.00 0.00 0.00 24 1024.0
20180420222026 58 359 2.0 8.0 0.00 0.00 0.00 24 1024.0
20180420221526 58 3 2.0 8.0 0.00 0.00 0.00 24 1024.0
20180420221026 58 5 2.0 8.0 0.00 0.00 0.00 23 1024.0
20180420220526 58 357 2.0 10.0 0.00 0.00 0.00 23 1024.0
20180420220026 58 359 2.0 11.0 0.00 0.00 0.00 24 1024.0
20180420215527 58 1 2.0 11.0 0.00 0.00 0.00 25 1023.9
20180420215026 58 3 2.0 10.0 0.00 0.00 0.00 25 1023.9
20180420214526 59 3 2.0 12.0 0.00 0.00 0.00 24 1023.9
20180420214026 59 358 2.0 12.0 0.00 0.00 0.00 23 1023.9
20180420213526 60 356 2.0 13.0 0.00 0.00 0.00 25 1023.9
20180420213026 60 352 2.0 13.0 0.00 0.00 0.00 25 1023.7
20180420212526 60 332 2.0 8.0 0.00 0.00 0.00 23 1023.7
20180420212026 60 323 2.0 8.0 0.00 0.00 0.00 24 1023.7
20180420211526 60 344 2.0 8.0 0.00 0.00 0.00 24 1023.6
20180420211026 59 349 3.0 11.0 0.00 0.00 0.00 24 1023.6
20180420210526 59 1 3.0 11.0 0.00 0.00 0.00 25 1023.6
20180420210026 59 359 3.0 11.0 0.00 0.00 0.00 23 1023.4
20180420205526 60 351 3.0 11.0 0.00 0.00 0.00 22 1023.4
20180420205026 60 349 2.0 8.0 0.00 0.00 0.00 23 1023.4
20180420204526 60 343 2.0 11.0 0.00 0.00 0.00 24 1023.4
20180420204026 60 344 2.0 12.0 0.00 0.00 0.00 24 1023.5
20180420203526 60 330 2.0 12.0 0.00 0.00 0.00 21 1023.5
20180420203026 60 337 2.0 10.0 0.00 0.00 0.00 23 1023.5
20180420202526 60 358 2.0 8.0 0.00 0.00 0.00 23 1023.5
20180420202026 60 3 2.0 12.0 0.00 0.00 0.00 23 1023.5
20180420201526 59 359 3.0 12.0 0.00 0.00 0.00 24 1023.6
20180420201025 60 357 2.0 10.0 0.00 0.00 0.00 24 1023.6
20180420200526 60 348 2.0 11.0 0.00 0.00 0.00 24 1023.6
20180420200026 60 331 2.0 11.0 0.00 0.00 0.00 27 1023.6
20180420195526 59 358 2.0 10.0 0.00 0.00 0.00 23 1023.6
20180420195025 59 9 3.0 8.0 0.00 0.00 0.00 24 1023.5
20180420194526 58 2 3.0 12.0 0.00 0.00 0.00 25 1023.5
20180420194026 58 354 3.0 12.0 0.00 0.00 0.00 25 1023.5
20180420193526 58 353 3.0 12.0 0.00 0.00 0.00 23 1023.5
20180420193026 58 5 3.0 12.0 0.00 0.00 0.00 25 1023.7
20180420192525 59 9 2.0 7.0 0.00 0.00 0.00 24 1023.7
20180420192026 58 329 2.0 7.0 0.00 0.00 0.00 24 1023.7
20180420191526 58 342 2.0 13.0 0.00 0.00 0.00 25 1023.7
20180420191026 58 349 3.0 13.0 0.00 0.00 0.00 25 1023.8
20180420190526 57 350 3.0 13.0 0.00 0.00 0.00 26 1023.8
20180420190026 57 350 3.0 11.0 0.00 0.00 0.00 24 1023.8
20180420185526 58 325 2.0 11.0 0.00 0.00 0.00 25 1023.7
20180420185026 58 292 2.0 11.0 0.00 0.00 0.00 26 1023.7
20180420184526 57 339 3.0 12.0 0.00 0.00 0.00 25 1023.6
20180420184026 57 352 2.0 12.0 0.00 0.00 0.00 27 1023.5
20180420183525 57 359 2.0 10.0 0.00 0.00 0.00 25 1023.5
20180420183026 57 13 2.0 10.0 0.00 0.00 0.00 28 1023.5
20180420182526 57 46 2.0 12.0 0.00 0.00 0.00 24 1023.7
20180420182026 57 203 2.0 12.0 0.00 0.00 0.00 24 1023.7
20180420181525 57 352 1.0 10.0 0.00 0.00 0.00 26 1023.7
20180420181025 56 355 2.0 10.0 0.00 0.00 0.00 27 1023.7
20180420180526 56 3 2.0 20.0 0.00 0.00 0.00 28 1023.7
20180420180026 56 3 2.0 20.0 0.00 0.00 0.00 26 1023.7
20180420175526 56 355 2.0 11.0 0.00 0.00 0.00 26 1023.7
20180420175025 56 350 1.0 7.0 0.00 0.00 0.00 28 1023.7
20180420174525 55 338 2.0 11.0 0.00 0.00 0.00 28 1023.7
20180420174025 55 270 2.0 11.0 0.00 0.00 0.00 26 1023.9
20180420173525 55 345 3.0 12.0 0.00 0.00 0.00 29 1023.9
20180420173026 54 358 2.0 12.0 0.00 0.00 0.00 31 1023.9
20180420172526 54 351 2.0 12.0 0.00 0.00 0.00 25 1024.0
20180420172025 53 353 4.0 12.0 0.00 0.00 0.00 27 1024.0
20180420171525 53 356 3.0 11.0 0.00 0.00 0.00 27 1024.0
20180420171026 53 357 3.0 18.0 0.00 0.00 0.00 28 1024.1
20180420170526 53 1 3.0 18.0 0.00 0.00 0.00 25 1024.1
20180420170026 53 1 4.0 13.0 0.00 0.00 0.00 27 1024.1
20180420165525 53 359 3.0 12.0 0.00 0.00 0.00 25 1024.3
20180420165025 52 1 1.0 7.0 0.00 0.00 0.00 28 1024.3
20180420164525 53 5 2.0 12.0 0.00 0.00 0.00 29 1024.4
20180420164026 52 4 3.0 12.0 0.00 0.00 0.00 27 1024.4
20180420163526 52 14 3.0 14.0 0.00 0.00 0.00 26 1024.4
20180420163025 52 1 3.0 14.0 0.00 0.00 0.00 27 1024.4
20180420162525 52 354 2.0 13.0 0.00 0.00 0.00 28 1024.3
20180420162026 52 356 2.0 8.0 0.00 0.00 0.00 27 1024.3
20180420161526 51 33 3.0 10.0 0.00 0.00 0.00 28 1024.3
20180420161025 50 7 3.0 17.0 0.00 0.00 0.00 28 1024.5
20180420160525 50 358 3.0 17.0 0.00 0.00 0.00 28 1024.5
20180420160026 50 8 2.0 18.0 0.00 0.00 0.00 28 1024.5
20180420155526 50 337 3.0 18.0 0.00 0.00 0.00 31 1024.6
20180420155026 49 335 3.0 11.0 0.00 0.00 0.00 30 1024.6
20180420154525 49 357 3.0 18.0 0.00 0.00 0.00 30 1024.6
20180420154025 49 354 3.0 18.0 0.00 0.00 0.00 28 1024.6
20180420153525 49 353 3.0 17.0 0.00 0.00 0.00 29 1024.6
20180420153026 48 358 3.0 17.0 0.00 0.00 0.00 29 1024.6
20180420152525 48 352 3.0 13.0 0.00 0.00 0.00 28 1024.6
20180420152025 48 356 3.0 13.0 0.00 0.00 0.00 32 1024.6
20180420151526 47 2 2.0 11.0 0.00 0.00 0.00 30 1024.6
20180420151026 47 347 2.0 12.0 0.00 0.00 0.00 31 1024.5
20180420150526 47 346 2.0 13.0 0.00 0.00 0.00 32 1024.5
20180420150025 47 342 3.0 14.0 0.00 0.00 0.00 32 1024.5
20180420145525 46 346 4.0 14.0 0.00 0.00 0.00 32 1024.5
20180420145026 46 352 4.0 12.0 0.00 0.00 0.00 33 1024.5
20180420144525 46 347 4.0 16.0 0.00 0.00 0.00 31 1024.5
20180420144025 46 353 3.0 16.0 0.00 0.00 0.00 36 1024.3
20180420143525 46 350 3.0 13.0 0.00 0.00 0.00 35 1024.3
20180420143025 45 339 3.0 13.0 0.00 0.00 0.00 31 1024.3
20180420142525 45 352 3.0 11.0 0.00 0.00 0.00 35 1024.2
20180420142025 45 1 3.0 11.0 0.00 0.00 0.00 36 1024.2
20180420141525 44 357 3.0 11.0 0.00 0.00 0.00 39 1024.3
20180420141025 44 356 3.0 11.0 0.00 0.00 0.00 35 1024.1
20180420140525 44 347 2.0 11.0 0.00 0.00 0.00 37 1024.1
20180420140026 44 343 2.0 13.0 0.00 0.00 0.00 35 1024.1
20180420135525 44 349 2.0 13.0 0.00 0.00 0.00 36 1024.0
20180420135025 43 3 3.0 13.0 0.00 0.00 0.00 38 1024.1
20180420134526 43 358 4.0 13.0 0.00 0.00 0.00 38 1024.0
20180420134025 42 352 4.0 12.0 0.00 0.00 0.00 40 1024.1
20180420133525 42 352 4.0 12.0 0.00 0.00 0.00 37 1024.1
20180420133026 42 353 3.0 12.0 0.00 0.00 0.00 40 1024.1
20180420132525 42 353 2.0 12.0 0.00 0.00 0.00 40 1024.0
20180420132025 41 352 2.0 11.0 0.00 0.00 0.00 41 1024.0
20180420131525 41 6 3.0 11.0 0.00 0.00 0.00 40 1024.0
20180420131025 41 4 3.0 11.0 0.00 0.00 0.00 40 1024.1
20180420130526 40 356 2.0 11.0 0.00 0.00 0.00 43 1024.1
20180420130025 40 355 2.0 10.0 0.00 0.00 0.00 44 1024.1
20180420125525 40 359 2.0 11.0 0.00 0.00 0.00 43 1024.0
20180420125025 40 356 2.0 12.0 0.00 0.00 0.00 44 1024.0
20180420124525 40 355 2.0 12.0 0.00 0.00 0.00 44 1024.0
20180420124026 39 174 2.0 8.0 0.00 0.00 0.00 45 1023.6
20180420123526 39 262 2.0 8.0 0.00 0.00 0.00 43 1023.6
20180420123025 39 325 2.0 8.0 0.00 0.00 0.00 45 1023.6
20180420122525 39 320 2.0 8.0 0.00 0.00 0.00 45 1023.6
20180420122025 38 321 2.0 14.0 0.00 0.00 0.00 46 1023.6
20180420121526 38 337 2.0 14.0 0.00 0.00 0.00 48 1023.6
20180420121025 38 2 2.0 11.0 0.00 0.00 0.00 46 1023.6
20180420120525 38 357 2.0 18.0 0.00 0.00 0.00 48 1023.6
20180420120025 38 359 2.0 18.0 0.00 0.00 0.00 46 1023.6
20180420115525 37 154 2.0 10.0 0.00 0.00 0.00 47 1023.6
20180420115025 37 305 1.0 10.0 0.00 0.00 0.00 48 1023.6
20180420114525 37 320 1.0 8.0 0.00 0.00 0.00 48 1023.6
20180420114026 37 5 1.0 5.0 0.00 0.00 0.00 48 1023.6
20180420113525 36 15 0.0 3.0 0.00 0.00 0.00 49 1023.6
20180420113025 36 7 0.0 3.0 0.00 0.00 0.00 48 1023.6
20180420112525 36 57 1.0 6.0 0.00 0.00 0.00 49 1023.6
20180420112025 36 102 0.0 6.0 0.00 0.00 0.00 49 1023.6
20180420111525 36 229 1.0 3.0 0.00 0.00 0.00 50 1023.6
20180420111025 36 7 1.0 11.0 0.00 0.00 0.00 51 1023.5
20180420110525 35 4 1.0 11.0 0.00 0.00 0.00 51 1023.4
20180420110025 35 357 1.0 6.0 0.00 0.00 0.00 52 1023.5
20180420105525 34 349 0.0 6.0 0.00 0.00 0.00 55 1023.0
20180420105025 34 172 0.0 3.0 0.00 0.00 0.00 55 1023.0
20180420104525 34 1 0.0 1.0 0.00 0.00 0.00 55 1023.0
20180420104025 34 146 0.0 5.0 0.00 0.00 0.00 55 1023.0
20180420103525 34 173 0.0 5.0 0.00 0.00 0.00 54 1023.0
20180420103025 34 216 1.0 3.0 0.00 0.00 0.00 52 1023.0
20180420102525 34 308 1.0 5.0 0.00 0.00 0.00 53 1022.9
20180420102025 34 31 0.0 5.0 0.00 0.00 0.00 53 1022.9
20180420101525 34 168 0.0 4.0 0.00 0.00 0.00 53 1022.9
20180420101025 34 178 0.0 4.0 0.00 0.00 0.00 54 1022.8
20180420100527 34 334 0.0 2.0 0.00 0.00 0.00 53 1022.8
20180420100025 34 353 1.0 7.0 0.00 0.00 0.00 52 1022.8
20180420095525 35 350 1.0 7.0 0.00 0.00 0.00 51 1022.5
20180420095025 34 354 1.0 6.0 0.00 0.00 0.00 53 1022.5
20180420094524 34 2 1.0 5.0 0.00 0.00 0.00 53 1022.5
20180420094025 34 7 0.0 6.0 0.00 0.00 0.00 56 1022.5
20180420093525 34 10 1.0 6.0 0.00 0.00 0.00 54 1022.5
20180420093025 34 1 0.0 6.0 0.00 0.00 0.00 54 1022.5
20180420092525 34 343 0.0 2.0 0.00 0.00 0.00 55 1022.2
20180420092025 34 341 0.0 3.0 0.00 0.00 0.00 54 1022.2
20180420091524 34 354 0.0 3.0 0.00 0.00 0.00 55 1022.2
20180420091025 34 1 0.0 3.0 0.00 0.00 0.00 54 1022.3
20180420090525 34 27 1.0 6.0 0.00 0.00 0.00 56 1022.3
20180420090025 35 176 1.0 6.0 0.00 0.00 0.00 52 1022.3
20180420085525 35 11 1.0 5.0 0.00 0.00 0.00 53 1022.4
20180420085025 34 11 1.0 5.0 0.00 0.00 0.00 52 1022.4
20180420084525 34 184 0.0 2.0 0.00 0.00 0.00 53 1022.2
20180420084025 35 252 0.0 1.0 0.00 0.00 0.00 54 1022.2
20180420083525 35 8 1.0 12.0 0.00 0.00 0.00 53 1022.2
20180420083025 35 355 2.0 12.0 0.00 0.00 0.00 52 1022.2
20180420082525 35 338 1.0 5.0 0.00 0.00 0.00 53 1022.0
20180420082027 35 9 1.0 5.0 0.00 0.00 0.00 53 1022.0
20180420081526 35 12 1.0 7.0 0.00 0.00 0.00 52 1022.0
20180420081025 35 6 1.0 7.0 0.00 0.00 0.00 53 1021.8
20180420080525 35 1 1.0 5.0 0.00 0.00 0.00 53 1021.8
20180420080025 35 5 1.0 5.0 0.00 0.00 0.00 53 1021.9
20180420075524 35 60 0.0 3.0 0.00 0.01 0.00 55 1021.7
20180420075025 35 355 1.0 7.0 0.00 0.01 0.00 54 1021.7
20180420074525 35 351 1.0 7.0 0.00 0.01 0.00 56 1021.7
20180420074025 35 343 0.0 2.0 0.00 0.01 0.00 57 1021.6
20180420073525 35 186 0.0 3.0 0.00 0.01 0.00 58 1021.6
20180420073025 36 359 0.0 4.0 0.00 0.01 0.00 56 1021.7